Overview Statistics Trail Chart Weather Telemetry Raw packets
 

This is the latest recevied weather packets stored in our database for station/object DG2HSI-11. If no packets are shown the sender has not sent any weather packets the latest 10 day(s).

<< 28 29 30 31 32 >>
Time Temp. Humidity Pressure Rain* Wind** Luminosity Snow
1787740249 18.89° C 56% 1021.5 hPa - - - -
1787739048 19.44° C 55% 1021.3 hPa - - - -
1787737848 20° C 54% 1021.3 hPa - - - -
1787736647 20° C 54% 1021.5 hPa - - - -
1787735446 19.44° C 55% 1021.5 hPa - - - -
1787734247 19.44° C 54% 1021.4 hPa - - - -
1787733044 20° C 54% 1021.4 hPa - - - -
1787731843 19.44° C 54% 1021.2 hPa - - - -
1787730642 18.89° C 55% 1021 hPa - - - -
1787729441 20° C 54% 1020.8 hPa - - - -
1787728241 18.89° C 55% 1020.6 hPa - - - -
1787727040 19.44° C 54% 1020.5 hPa - - - -
1787725839 18.89° C 55% 1020.4 hPa - - - -
1787724638 20° C 53% 1020.3 hPa - - - -
1787723437 18.89° C 55% 1020.1 hPa - - - -
1787722237 19.44° C 54% 1020.1 hPa - - - -
1787721036 18.89° C 55% 1020.1 hPa - - - -
1787719835 20° C 53% 1020.1 hPa - - - -
1787718634 18.89° C 55% 1020 hPa - - - -
1787717434 19.44° C 54% 1019.8 hPa - - - -
1787716233 18.89° C 55% 1019.8 hPa - - - -
1787715032 20° C 53% 1019.8 hPa - - - -
1787713833 18.89° C 55% 1019.8 hPa - - - -
1787712630 20° C 53% 1019.7 hPa - - - -
1787711429 18.89° C 55% 1019.6 hPa - - - -

* Rain since midnight (hover to see other rain measurements)
** Current wind speed in m/s (hover to see current wind gust speed)